GFSSE_925_thetae_018.txt.gz
Theta_e
345 348 345 346 351 344 351 339 346 344 345 345 346 348 348 346 346 346 346 345 346 347 346 345 350 349 350 350 350 349 349 348 348 346 345 347 347 349 345 345 349 350 349
343 346 344 349 349 345 351 346 343 346 344 345 345 345 346 347 347 347 348 348 347 347 348 348 347 348 348 348 349 349 349 344 342 344 345 344 345 343 345 344 348 348 348
343 345 350 348 348 349 348 349 349 344 344 343 342 343 343 343 343 343 345 346 349 348 347 348 348 348 347 347 347 348 346 344 341 341 345 347 347 344 344 344 344 346 347
346 346 346 347 348 349 349 348 347 344 343 339 338 339 339 339 340 341 341 341 344 346 346 346 344 344 346 345 345 346 347 344 341 345 346 346 346 346 342 342 343 343 347
347 345 347 347 348 348 347 346 345 343 341 339 339 337 337 337 338 338 339 339 341 344 344 345 346 345 345 344 344 345 346 343 343 347 347 347 346 344 343 342 342 341 343
346 345 348 348 347 346 346 345 343 341 341 337 342 339 336 338 337 337 338 338 340 341 339 342 345 345 345 345 345 346 344 344 346 347 348 346 347 341 343 342 342 341 339
343 343 345 349 348 348 345 341 341 343 341 336 335 331 335 335 335 334 335 334 337 337 334 335 340 342 343 344 345 345 342 343 345 345 346 346 346 344 344 343 341 340 339
341 341 342 348 349 347 341 339 342 341 336 331 328 329 333 333 334 333 331 331 332 333 331 330 334 336 339 342 346 345 343 342 345 345 344 345 340 343 343 344 341 340 340
339 339 340 346 347 343 338 337 331 326 327 327 323 326 324 331 331 330 329 328 328 328 328 325 321 325 333 337 342 344 343 342 344 343 342 340 341 345 343 340 342 340 340
340 339 338 341 345 340 335 336 327 320 318 318 316 315 317 323 326 323 325 325 325 325 322 320 320 319 322 331 337 341 340 339 341 339 339 337 341 343 342 343 339 341 340
340 339 338 338 340 337 333 332 327 316 313 311 312 310 312 319 321 321 320 322 321 320 316 314 316 316 317 322 327 333 333 332 335 334 332 333 338 338 339 341 341 341 340
340 339 339 337 336 334 330 328 324 324 321 317 315 312 313 315 316 317 315 311 311 307 306 307 309 311 313 314 316 320 320 324 328 328 327 330 333 334 334 338 339 339 339
338 340 339 336 334 333 328 326 321 316 313 311 310 311 312 312 310 310 311 309 308 305 307 306 307 308 309 310 311 311 313 315 318 320 319 322 323 325 328 334 335 336 336
337 338 339 336 333 331 328 322 316 313 312 311 310 310 310 310 309 309 308 308 307 307 306 306 306 306 306 306 306 306 308 309 311 313 313 313 315 317 320 322 329 330 331
336 338 339 337 331 329 326 319 315 313 312 311 310 309 310 310 309 308 308 307 307 306 306 306 305 305 305 304 304 304 305 304 306 307 308 302 305 309 314 316 318 319 321
335 337 338 336 330 327 324 319 315 313 312 311 310 309 309 310 309 309 308 307 307 306 306 305 305 305 304 304 304 303 304 304 304 303 304 305 298 298 304 308 311 312 315
334 335 336 335 330 325 321 318 316 314 312 311 311 309 309 309 309 309 308 307 307 306 305 305 304 304 304 304 304 304 303 304 303 302 304 304 304 302 298 299 304 308 310
331 333 334 333 328 323 320 318 316 314 312 311 310 309 309 309 309 308 307 307 307 306 306 305 305 305 304 304 304 304 304 303 303 302 303 303 304 304 303 300 298 299 306
327 330 333 332 326 323 320 318 316 314 312 311 310 309 308 308 308 308 307 307 306 306 306 305 305 305 305 305 304 304 303 303 304 302 303 303 303 304 303 303 303 301 300
323 326 329 332 327 324 321 318 316 313 312 312 310 310 308 308 307 307 307 307 306 306 306 305 305 304 304 304 303 303 303 303 304 303 303 303 302 303 303 303 304 304 303
321 323 324 329 328 325 321 318 316 314 312 311 309 309 308 308 307 306 306 306 306 305 305 305 305 305 305 303 304 304 304 303 303 303 303 302 302 302 302 302 302 302 303
320 321 321 323 327 325 321 318 317 315 313 311 309 308 308 308 306 306 306 306 306 305 305 304 304 304 304 303 303 304 307 305 303 303 302 302 302 302 302 302 302 302 302
319 319 320 321 322 324 320 318 316 314 312 309 308 307 307 307 306 305 305 305 305 305 305 305 304 304 304 303 302 303 306 306 303 303 303 302 302 302 302 302 302 302 302
318 318 318 319 319 320 319 317 315 313 310 310 309 308 307 306 306 305 304 304 304 304 304 304 303 303 303 303 302 301 302 302 304 304 303 302 302 302 302 302 302 302 302
315 316 317 317 317 317 317 316 314 314 313 312 310 308 307 305 305 305 304 304 303 304 303 303 302 302 302 302 302 302 302 302 302 302 304 303 302 301 301 301 301 302 302
315 316 315 316 316 316 315 314 314 314 315 313 310 308 307 306 305 304 304 303 303 303 303 303 302 302 302 302 302 302 302 302 302 301 302 302 301 300 301 301 301 301 302

GFSSE_925_thetae_021.txt.gz
Theta_e
344 350 345 348 351 347 347 344 348 345 346 345 348 349 347 349 349 349 348 346 345 346 346 349 350 350 349 349 351 350 350 349 348 345 346 347 348 345 345 348 348 349 350
341 346 343 348 348 349 347 346 349 345 345 345 345 346 346 346 345 346 348 350 348 348 347 349 350 348 350 350 350 350 349 348 343 343 343 343 343 345 344 347 347 349 349
343 347 348 351 345 352 350 351 348 345 344 343 343 344 343 343 343 343 344 347 348 349 348 348 348 348 348 347 346 348 348 344 340 346 347 347 347 343 343 343 343 344 348
344 347 349 347 345 349 350 349 348 344 342 340 340 340 340 340 341 341 341 343 344 346 348 347 346 347 347 344 346 345 345 341 346 347 348 346 348 344 344 343 343 341 347
344 346 350 347 347 350 348 347 345 343 340 340 338 339 339 339 340 341 341 342 344 342 343 346 348 345 345 343 343 347 343 343 347 347 345 346 346 344 346 343 342 341 344
347 346 348 348 348 348 346 344 343 343 341 342 340 338 338 337 337 337 337 341 340 337 340 344 344 345 345 345 344 345 343 345 346 347 347 348 347 346 345 341 343 341 339
347 346 347 348 348 347 345 344 342 343 340 337 336 336 336 336 335 335 334 335 336 334 334 338 341 342 343 345 347 343 342 345 345 344 345 345 345 345 346 344 341 341 340
345 344 346 349 350 348 344 342 344 342 337 331 328 331 333 335 334 332 331 331 332 332 330 329 332 334 339 345 346 344 342 344 345 344 343 343 340 344 344 342 343 340 341
340 339 339 345 349 347 343 343 344 340 331 326 324 323 331 333 332 331 329 330 329 328 322 322 322 321 332 338 343 343 342 343 343 342 340 341 341 342 343 342 341 342 340
337 337 336 344 346 345 341 341 340 336 326 321 318 317 321 328 324 322 326 326 326 321 316 318 319 319 321 331 339 341 340 340 340 340 336 337 341 342 344 342 338 342 342
337 337 335 339 344 342 340 338 337 334 323 314 314 312 318 325 325 324 321 322 322 313 312 314 316 316 317 319 328 336 334 335 336 336 333 333 337 339 339 340 341 341 341
338 337 336 336 339 341 338 336 331 328 325 322 320 313 318 319 320 321 317 309 307 305 305 307 310 312 315 317 318 321 323 328 331 329 326 326 331 333 334 335 337 337 338
337 337 336 336 335 337 336 334 329 326 323 319 317 315 316 318 315 318 314 313 311 309 310 309 310 310 311 313 313 314 316 318 321 324 319 321 326 325 327 328 330 334 335
336 337 337 336 335 334 334 332 328 325 317 315 314 314 315 314 313 313 312 311 311 310 309 309 309 308 308 308 308 308 309 311 314 316 315 314 317 319 321 323 323 325 330
335 335 337 337 335 333 332 331 328 321 315 315 314 313 314 314 313 313 312 311 310 309 309 309 308 308 307 307 306 307 307 307 308 309 311 306 303 309 315 317 318 319 321
334 334 336 338 335 333 331 329 326 320 316 315 314 313 314 314 314 313 312 311 310 309 309 308 308 308 307 307 306 306 306 306 306 306 307 308 304 300 304 311 312 313 315
332 333 334 337 337 333 330 328 325 320 317 315 314 314 313 314 313 313 312 311 311 309 308 307 307 307 307 306 307 306 306 306 306 305 306 306 307 306 303 300 304 309 311
329 331 332 335 337 335 329 327 324 320 317 315 314 314 313 313 313 312 312 311 311 309 308 308 308 307 307 307 307 307 307 306 306 304 305 305 306 306 306 305 300 299 305
324 327 329 333 336 335 331 326 323 320 318 316 315 314 312 312 312 312 312 311 310 309 309 308 308 308 308 308 307 306 306 306 306 305 305 305 305 306 306 305 304 304 304
322 324 326 330 334 334 331 326 322 320 318 317 315 314 313 312 312 312 311 311 310 309 309 308 308 307 307 307 306 305 306 306 306 306 305 305 305 305 305 305 305 305 304
321 322 324 327 331 334 330 326 323 320 319 317 316 314 314 312 311 311 311 311 309 309 309 308 307 308 307 306 306 308 307 306 305 306 306 305 305 304 304 304 304 304 304
321 321 322 323 326 331 331 327 324 321 319 317 316 315 314 312 311 311 311 310 309 309 308 308 307 307 307 306 306 306 310 308 306 305 305 304 304 304 304 304 304 304 304
319 319 320 321 323 325 331 328 325 322 320 318 316 315 313 312 311 310 310 310 309 309 308 308 307 307 307 306 304 305 308 310 306 305 305 305 304 304 304 304 304 303 303
316 317 319 318 320 321 325 329 327 324 322 319 317 314 312 312 311 309 309 309 309 308 308 308 307 307 306 307 305 304 304 304 305 306 305 305 304 303 303 303 303 303 303
313 314 316 317 317 319 320 325 327 324 322 319 317 314 313 311 311 309 308 308 308 308 308 307 306 306 306 305 305 305 304 304 304 304 305 305 304 303 303 302 302 303 303
312 313 315 315 316 316 318 320 325 324 322 320 316 315 313 311 310 309 308 307 307 307 307 306 306 305 305 305 304 304 304 304 304 304 305 304 303 302 302 302 302 303 303

GFSSE_925_thetae_024.txt.gz
Theta_e
352 344 343 348 349 352 341 349 347 347 345 346 346 348 348 348 347 348 349 344 344 346 347 349 350 350 349 350 350 350 348 347 343 344 345 346 347 347 347 348 347 349 349
348 345 343 350 347 350 343 350 348 345 345 344 346 345 345 345 345 344 346 349 348 348 347 349 349 349 350 346 346 347 346 340 343 343 342 341 344 346 346 346 345 349 348
345 347 345 347 345 351 349 349 346 344 343 343 344 343 343 343 342 342 344 347 348 349 348 346 348 345 345 347 344 344 339 340 346 346 346 344 343 343 344 342 342 348 347
346 346 351 346 348 351 351 349 346 343 341 339 340 339 339 341 341 341 344 345 345 348 351 347 345 344 341 344 346 341 342 346 347 347 348 347 347 346 345 343 341 347 345
345 349 350 346 345 348 349 347 345 341 338 338 339 339 338 340 340 340 341 342 340 346 346 347 347 346 344 342 344 342 344 347 346 346 345 346 346 347 347 346 342 342 344
345 349 348 346 348 349 348 346 344 340 341 340 338 338 337 336 336 335 338 337 337 338 343 345 345 346 345 344 344 341 345 345 346 347 346 345 344 346 344 341 341 340 339
347 349 345 346 349 347 346 344 343 337 342 340 334 336 336 335 334 333 333 335 333 333 337 339 342 345 344 345 345 341 344 344 344 344 343 342 343 344 346 343 340 340 340
346 349 347 346 348 347 346 344 344 341 334 335 330 331 335 334 333 331 331 332 331 330 329 332 331 331 345 347 344 342 343 345 341 342 341 340 340 343 343 341 341 339 340
345 345 347 346 349 347 345 344 344 342 334 329 326 324 332 331 331 327 329 329 327 322 319 322 320 320 333 341 342 342 343 342 340 339 338 339 342 342 341 341 340 342 341
341 340 344 347 346 346 344 342 344 341 334 328 321 317 324 319 319 325 325 323 318 314 314 317 318 318 321 331 339 341 339 340 338 336 334 336 338 338 341 343 341 341 342
337 337 335 345 346 345 343 342 343 340 336 327 319 313 321 324 325 325 324 313 309 308 310 312 314 315 318 318 329 337 332 336 335 333 333 332 334 335 338 339 339 340 342
337 337 336 342 345 344 342 340 337 335 331 319 315 311 322 323 323 322 309 307 305 305 305 306 310 313 315 317 317 320 324 329 329 328 327 328 330 332 334 335 336 336 337
337 337 336 335 343 342 341 338 335 332 326 321 320 314 319 319 320 317 310 311 309 310 310 309 310 310 311 311 313 313 317 320 323 324 322 323 324 327 328 328 329 332 333
337 337 336 335 336 339 340 337 334 329 325 323 320 316 316 317 314 317 313 312 310 310 309 309 309 308 307 308 308 308 310 312 314 316 316 312 318 321 323 323 325 326 329
336 336 337 336 336 335 338 335 333 329 325 320 316 315 316 315 314 313 312 311 310 309 309 309 308 308 307 307 306 307 307 307 308 309 310 307 302 307 316 318 319 320 322
335 335 336 337 336 335 334 335 332 330 324 316 315 314 314 314 314 313 312 311 310 309 309 309 308 308 307 307 306 306 307 306 307 306 307 307 306 304 303 308 312 314 316
332 333 335 336 337 336 334 333 332 330 323 316 315 314 314 315 314 313 312 311 311 310 309 308 307 307 307 307 307 306 306 306 306 305 306 306 306 306 305 304 301 308 312
326 329 332 335 337 337 335 332 331 328 323 317 315 314 313 314 314 313 312 312 311 310 308 308 307 307 307 307 307 307 306 306 306 305 305 305 306 306 306 305 303 301 304
324 324 327 331 336 338 337 334 330 327 323 318 316 314 314 313 313 313 312 312 311 310 308 308 308 308 308 308 307 307 306 306 306 306 305 305 305 304 304 304 305 305 305
320 322 323 325 334 337 337 336 330 326 323 320 317 315 314 313 313 313 312 311 311 310 309 308 308 307 307 308 307 306 305 306 306 306 305 305 305 305 304 304 304 304 306
317 318 319 319 324 332 336 336 332 325 322 320 318 316 314 313 312 312 312 311 311 309 309 308 307 308 307 306 306 306 307 307 306 305 306 305 305 305 304 304 304 304 303
314 315 316 318 318 318 330 335 332 327 323 320 319 317 315 313 312 312 312 311 311 309 309 309 307 307 307 307 305 307 304 307 306 305 305 305 304 304 304 304 304 304 303
313 313 314 315 316 317 317 329 331 327 324 321 319 317 316 314 313 312 312 311 311 309 309 309 308 307 307 306 305 305 304 303 305 306 305 305 304 304 304 304 304 303 303
311 312 313 313 314 316 315 316 326 328 324 322 320 318 317 315 313 312 311 311 310 309 309 308 308 307 308 307 305 304 304 304 301 301 305 305 305 304 303 303 303 303 302
310 312 311 311 314 315 316 315 316 321 327 324 321 319 317 315 314 312 311 311 310 309 309 309 308 307 307 307 306 305 303 304 304 302 301 304 305 304 303 302 302 302 303
310 311 311 311 312 313 315 315 314 316 321 325 323 320 317 315 313 312 311 310 310 309 309 308 308 307 307 305 306 306 305 304 304 303 300 301 301 302 302 302 302 302 302

GFSSE_925_thetae_027.txt.gz
Theta_e
347 344 344 346 346 342 349 346 346 345 345 346 346 346 347 345 346 350 346 344 347 346 349 350 350 351 350 349 347 345 348 348 343 342 342 345 347 348 349 346 346 346 347
347 342 345 347 351 346 350 349 348 344 343 344 344 344 344 342 342 345 348 349 348 348 348 349 348 347 347 345 342 339 343 343 343 342 343 343 344 346 344 344 345 347 346
347 339 345 346 349 347 350 350 345 342 342 342 343 343 343 342 340 341 346 347 348 348 348 348 344 344 344 345 339 339 343 346 345 345 343 342 343 344 342 341 345 347 345
345 337 340 344 350 349 350 349 344 342 340 341 339 339 340 342 341 344 345 342 349 348 349 346 344 340 344 344 339 345 346 345 345 346 347 346 346 347 346 346 347 347 344
345 345 341 344 348 347 349 347 343 339 333 339 338 338 339 339 339 341 340 340 344 346 346 345 346 344 341 342 341 345 345 345 344 346 345 344 344 347 347 345 343 343 339
346 347 343 343 344 346 348 347 343 337 334 339 339 338 337 337 337 338 337 335 338 342 343 345 345 345 343 343 342 344 345 346 345 344 343 342 343 346 341 341 341 339 339
348 349 346 343 348 348 347 345 343 342 341 337 336 336 336 335 334 334 334 333 333 336 337 340 343 347 344 344 341 344 344 343 340 340 340 340 342 343 345 342 340 341 340
347 348 346 342 348 348 347 345 344 341 341 336 336 336 335 334 332 331 331 331 330 329 332 332 334 344 345 344 341 342 345 341 337 337 336 338 340 341 340 340 341 340 340
347 348 346 341 344 346 346 344 344 342 339 336 335 335 332 330 327 325 325 327 325 316 318 317 317 331 340 339 342 342 342 339 336 335 335 337 341 340 340 339 341 341 341
347 347 346 342 341 343 345 344 344 342 339 336 332 334 328 318 316 321 313 312 312 312 314 315 316 318 329 336 341 341 340 338 335 334 334 335 335 337 339 340 341 341 341
345 345 345 344 342 340 343 343 343 342 339 336 329 326 319 318 320 324 312 307 308 309 311 313 314 317 317 324 337 335 335 335 336 334 333 333 333 333 336 338 338 340 340
340 341 340 345 343 342 340 341 342 341 337 332 324 319 322 323 321 319 311 306 304 305 306 310 312 314 316 317 325 324 330 329 330 330 328 327 332 332 333 334 335 335 336
338 336 336 340 344 343 343 341 340 337 333 327 318 314 324 325 323 321 307 306 306 309 308 309 310 311 314 314 314 319 319 321 325 324 323 320 328 330 330 330 331 332 334
338 337 336 336 342 344 342 341 339 336 328 323 316 315 322 322 321 320 312 311 309 309 308 309 307 306 309 308 308 310 314 315 316 317 315 312 321 325 325 325 327 328 330
337 337 336 336 337 343 342 340 339 336 333 327 320 319 317 319 318 315 313 311 310 309 309 308 308 307 307 307 307 307 307 309 310 311 310 307 304 316 319 319 321 322 323
336 335 336 336 335 338 341 340 338 335 332 327 322 320 316 317 316 313 313 312 310 309 309 308 308 308 307 306 306 306 307 306 307 307 306 306 305 305 310 312 314 316 318
331 334 335 336 336 334 337 339 337 333 330 326 321 317 315 316 315 313 312 312 311 309 309 308 308 308 307 306 306 306 306 306 306 305 305 306 306 306 305 304 304 310 312
320 319 327 336 336 335 335 334 335 333 330 325 320 316 314 314 314 313 312 312 311 310 309 308 307 307 307 307 306 306 306 306 306 305 305 305 305 305 305 305 304 302 306
313 314 316 323 331 336 335 334 333 333 332 329 321 316 314 314 314 314 313 312 311 310 309 308 307 307 307 307 307 307 306 306 306 305 304 304 304 304 304 303 304 303 305
311 312 312 314 316 325 334 333 332 332 331 330 323 317 315 314 313 314 313 312 311 310 309 308 308 307 307 307 307 307 305 305 306 306 305 305 304 305 304 304 303 303 305
311 311 311 312 313 314 315 319 326 327 329 327 323 320 317 315 314 313 313 312 311 311 310 309 308 308 307 307 307 306 306 306 306 306 306 305 305 305 304 304 303 303 303
309 311 310 310 311 313 314 314 315 321 323 325 324 320 317 316 315 313 313 312 311 311 310 309 308 307 307 306 305 304 301 305 306 305 305 306 305 304 304 303 303 303 303
308 310 310 310 311 312 313 313 314 314 316 321 320 320 318 316 315 314 313 312 312 311 310 309 308 307 307 307 306 304 301 302 303 305 304 305 304 304 304 303 304 303 303
308 308 309 310 311 311 311 312 314 315 314 315 321 319 319 317 316 314 313 312 312 311 310 309 309 308 307 307 306 305 304 304 299 301 304 304 304 304 304 303 303 303 302
308 307 307 310 310 310 310 310 311 314 314 313 313 320 319 318 316 315 313 312 312 311 311 310 309 308 307 306 306 304 303 303 302 299 299 302 304 304 303 302 302 301 302
307 306 307 307 308 310 309 309 309 311 313 312 312 314 320 318 317 315 314 312 312 311 311 310 309 308 307 307 306 306 304 303 302 301 298 299 300 303 302 302 301 302 302

GFSSE_925_thetae_030.txt.gz
Theta_e
348 343 346 343 342 350 346 349 348 349 347 349 350 347 348 351 351 348 348 349 348 349 349 350 351 350 350 349 348 350 348 345 342 343 346 346 348 348 348 344 343 345 345
347 344 348 344 346 350 350 350 346 346 344 345 345 345 343 342 345 349 349 347 347 348 349 347 349 350 348 348 347 344 344 342 342 343 342 344 345 344 343 344 343 345 345
343 343 348 347 348 349 350 350 345 341 343 344 344 344 343 340 342 350 347 348 347 347 347 345 345 345 344 340 343 345 345 344 344 343 342 342 343 343 341 342 344 345 345
342 342 346 350 347 349 349 347 344 341 341 341 341 340 341 337 344 346 343 347 347 346 346 345 341 343 343 341 345 345 345 344 346 346 345 345 347 347 346 344 344 346 345
343 337 342 347 348 347 350 346 342 339 341 339 339 339 339 340 342 341 341 345 345 345 344 346 344 340 342 342 345 345 343 345 346 345 343 343 345 346 346 345 345 341 342
344 340 338 346 349 349 349 346 343 336 339 339 338 338 337 339 338 337 338 342 340 342 343 344 345 341 342 342 344 347 345 344 343 340 341 341 343 344 344 342 340 340 341
345 345 340 341 345 348 349 347 344 338 339 339 338 337 336 335 336 336 334 336 338 339 340 340 343 343 344 341 344 344 344 342 340 339 339 339 341 342 344 342 342 341 341
345 347 344 344 342 346 348 347 345 343 339 337 337 336 336 334 334 334 333 332 333 335 336 337 342 345 344 340 343 343 342 339 337 336 336 336 339 341 340 340 341 340 341
346 348 346 344 343 343 346 347 345 343 341 337 336 336 336 333 333 332 332 331 330 331 327 329 336 342 342 342 341 344 342 337 335 335 334 337 340 340 339 338 340 341 340
348 347 346 345 343 341 343 344 344 343 341 337 336 336 334 332 330 331 331 329 326 321 318 317 322 333 336 339 341 341 340 338 335 334 332 334 335 335 338 338 340 341 341
348 347 346 345 342 341 341 343 343 342 340 338 336 335 333 326 327 328 319 324 322 313 314 315 317 321 330 338 339 338 337 337 335 334 333 332 331 332 334 335 338 339 340
348 348 346 344 341 341 341 343 344 343 339 336 332 330 326 320 321 322 315 317 313 310 312 313 315 317 318 333 333 331 334 334 334 333 332 331 331 332 332 334 335 335 336
346 347 346 344 341 341 341 341 342 342 339 333 328 324 322 322 322 321 313 309 307 307 308 311 312 314 315 319 322 324 327 328 329 328 326 323 330 331 331 332 333 333 335
339 343 344 343 342 342 341 340 339 341 340 333 324 321 319 324 323 321 313 307 307 309 308 308 308 309 312 312 312 317 317 320 322 321 318 315 325 329 328 328 328 330 331
337 337 338 340 341 342 342 342 340 339 338 334 326 319 315 321 323 322 318 311 309 309 308 309 307 307 308 307 308 310 312 313 315 314 312 309 312 322 322 322 323 324 325
321 328 329 335 337 341 342 343 341 340 338 335 331 323 316 316 319 319 318 313 311 309 309 308 307 307 306 306 306 307 307 307 309 308 307 306 305 310 315 315 317 318 320
313 317 321 329 338 341 341 342 342 340 339 336 333 326 321 318 316 317 316 313 312 310 309 309 308 307 307 306 306 305 306 306 306 306 305 306 306 306 305 305 309 313 314
310 311 313 318 326 332 337 337 336 335 338 336 332 327 323 321 317 316 315 313 312 311 309 309 308 307 307 306 306 306 305 306 306 305 305 305 305 305 305 303 303 301 309
310 309 310 312 313 316 324 330 334 332 332 333 331 327 324 320 316 315 314 313 312 311 310 309 308 307 307 306 306 306 306 306 306 305 305 305 304 304 304 304 304 303 305
310 310 310 312 312 312 312 315 317 326 329 327 325 326 322 317 315 314 314 313 313 312 310 309 308 306 306 306 306 306 306 306 306 305 305 305 304 304 305 304 304 303 305
308 309 310 310 310 310 311 312 314 314 317 324 322 317 315 316 315 314 314 314 313 312 311 310 308 307 307 307 307 307 307 305 305 305 305 305 304 304 305 304 303 303 303
307 307 309 309 310 310 310 311 312 314 314 314 315 320 316 314 314 314 313 313 313 312 311 310 309 307 307 307 306 303 301 304 305 305 305 305 305 305 305 304 303 303 303
306 306 306 307 308 310 309 309 310 312 313 313 313 313 314 318 313 314 314 313 313 313 312 311 309 308 307 306 306 304 299 301 301 304 305 305 305 305 304 304 303 303 303
305 304 306 306 306 309 307 307 307 307 311 312 312 312 313 312 317 313 313 314 313 313 312 311 310 309 308 306 305 305 304 304 300 301 303 304 304 304 304 303 303 303 303
304 304 304 305 306 307 306 306 306 305 307 311 311 311 312 312 311 315 315 313 313 313 313 312 310 310 308 307 307 305 303 302 302 298 299 301 303 303 303 303 303 302 302
304 304 304 304 304 304 304 305 305 305 305 310 310 310 310 310 311 311 314 313 313 313 312 312 311 310 309 308 307 306 305 302 300 300 296 297 300 303 303 302 302 302 301

GFSSE_925_thetae_033.txt.gz
Theta_e
348 341 346 350 344 351 350 350 352 350 350 349 351 350 351 351 350 349 348 348 349 347 349 350 350 351 349 350 349 349 348 346 347 346 346 347 348 349 346 343 342 344 343
345 343 349 350 347 351 352 351 352 350 348 349 351 348 348 348 349 348 347 347 348 348 348 349 349 350 348 348 348 348 345 345 342 343 344 343 343 345 347 342 343 345 345
346 343 350 349 348 350 350 349 349 347 345 346 347 347 344 345 346 347 347 347 349 348 344 347 347 348 347 347 348 347 347 343 342 342 343 343 341 343 344 343 345 345 345
345 342 347 351 349 350 349 349 346 343 343 344 345 344 340 341 345 347 346 347 346 345 346 341 345 346 346 347 346 346 345 344 342 341 342 345 345 346 346 342 343 344 344
342 339 344 352 349 349 349 348 346 344 342 340 340 340 339 343 344 342 344 344 344 345 345 342 342 345 344 346 344 345 344 345 345 343 342 343 345 346 342 341 344 341 341
340 338 341 350 347 348 347 348 346 345 343 339 338 338 338 340 340 340 343 344 342 341 343 345 341 344 343 345 345 344 344 345 343 342 341 340 342 345 344 341 341 341 342
341 337 337 343 349 349 350 348 345 343 341 339 339 337 337 338 338 336 338 340 340 340 340 341 343 343 343 344 345 344 344 343 342 340 340 340 341 343 344 341 340 341 341
342 341 335 340 342 345 349 348 345 342 340 340 339 337 336 336 337 335 334 336 337 338 338 339 340 343 341 343 343 343 342 340 338 336 335 336 338 341 340 341 340 340 340
343 344 342 343 343 343 346 348 345 343 340 339 338 337 336 335 334 334 333 332 333 334 335 336 340 342 342 340 343 344 341 337 335 334 334 337 339 340 339 337 340 340 340
345 346 345 345 345 345 345 345 345 343 342 338 337 337 336 334 333 333 332 331 330 331 331 333 338 340 340 341 342 343 341 336 334 333 332 334 335 335 337 338 339 340 340
346 347 346 346 346 344 343 342 342 341 342 338 337 336 335 331 328 330 328 328 328 328 328 327 328 333 337 338 340 339 339 337 335 333 332 331 332 331 333 335 339 339 340
348 348 347 346 346 344 343 341 339 341 341 337 333 332 332 327 321 324 322 325 326 325 323 319 318 321 329 336 338 335 336 337 334 334 333 333 331 330 331 333 333 334 336
345 348 347 347 346 344 342 341 339 341 340 337 330 326 325 323 319 322 321 317 318 320 316 317 315 315 317 328 330 329 332 334 333 333 331 327 327 330 330 331 332 333 334
329 342 346 349 347 344 343 341 339 341 340 339 332 324 319 316 317 320 319 311 309 309 309 311 310 312 313 315 321 321 324 327 327 326 323 320 326 329 329 329 330 331 333
316 320 330 344 347 346 344 342 340 340 340 339 336 329 321 314 314 318 319 315 309 308 309 308 308 307 310 309 310 312 316 318 320 319 316 313 319 326 325 324 325 326 327
311 313 319 326 336 345 345 343 342 341 341 341 339 333 324 318 314 317 319 318 313 310 309 308 308 306 307 306 306 307 308 310 312 313 311 308 307 312 318 317 319 320 322
309 311 312 317 331 344 344 343 341 340 340 340 339 336 329 321 315 315 317 317 316 312 310 309 308 307 306 306 306 306 306 306 307 307 306 306 306 306 306 306 311 315 315
310 310 310 310 313 318 330 337 339 340 339 338 338 336 331 324 318 317 317 316 315 313 311 310 308 308 307 306 306 305 305 305 305 305 305 305 305 305 305 303 303 304 310
309 309 310 310 310 311 314 314 323 329 331 334 336 336 333 328 320 318 318 317 315 313 312 310 309 308 307 307 306 306 305 305 305 305 305 305 305 304 304 303 304 304 306
307 308 309 309 309 309 310 312 313 314 315 320 324 329 330 328 323 320 317 317 315 313 312 310 309 308 308 307 306 306 306 306 305 305 305 305 305 304 304 304 304 304 306
306 306 306 307 309 309 309 309 311 313 314 313 313 316 317 318 320 319 318 315 315 313 312 311 310 308 307 306 305 305 306 306 306 305 305 305 305 304 304 304 304 303 303
304 306 306 306 308 307 307 307 307 308 310 311 312 313 313 313 315 313 314 314 314 313 312 311 310 309 307 306 306 302 301 302 305 305 304 305 305 304 304 304 304 303 303
303 304 304 305 308 306 306 305 305 305 306 307 308 308 310 311 312 313 313 311 312 312 313 312 311 310 308 306 306 305 298 299 299 304 304 304 304 304 304 305 304 304 303
304 303 303 305 307 305 304 304 305 305 305 305 307 308 306 306 306 306 311 312 312 311 310 312 312 311 308 307 304 306 304 303 300 300 303 304 304 304 305 304 304 304 303
304 303 304 304 305 305 304 303 303 303 304 304 306 306 306 306 306 305 307 310 311 312 311 311 310 310 310 307 307 305 303 302 301 298 299 300 302 303 304 304 304 303 303
304 303 303 304 304 303 303 303 303 303 304 304 305 308 306 306 306 307 309 309 308 310 311 310 310 310 310 308 308 307 306 302 299 299 295 296 299 302 303 303 303 303 302

GFSSE_925_thetae_036.txt.gz
Theta_e
346 341 347 350 349 351 347 349 351 350 348 350 350 350 349 347 348 348 347 348 346 348 350 349 351 349 349 348 348 349 349 349 349 349 348 347 347 348 345 342 342 342 342
344 341 349 349 350 350 351 352 352 351 347 348 349 349 348 348 347 346 346 346 347 347 347 349 350 348 348 348 347 348 347 346 344 344 344 345 344 345 343 342 343 344 342
344 341 351 350 350 351 351 351 350 350 350 348 348 348 345 345 346 345 345 347 348 346 346 346 347 348 348 348 347 347 346 342 341 343 341 340 344 346 345 344 345 345 344
343 342 347 351 349 350 350 349 349 348 346 346 348 347 342 344 346 346 345 344 345 345 345 345 345 346 347 347 346 347 345 342 341 341 342 343 343 346 344 341 344 343 344
344 342 343 350 351 348 348 347 347 345 345 345 345 343 340 343 344 344 344 343 342 344 343 342 345 344 346 345 346 346 346 343 342 342 342 344 345 345 345 342 343 342 341
344 342 343 351 349 347 347 346 346 345 344 344 340 339 339 341 341 340 343 341 342 342 343 343 342 343 344 344 344 344 346 343 341 341 341 342 343 343 343 340 340 341 342
340 338 341 348 346 346 345 347 346 343 341 339 339 337 337 338 338 336 339 340 340 340 340 341 342 344 343 345 344 343 344 342 341 341 341 341 342 343 343 341 340 341 341
338 337 338 341 344 348 348 348 346 339 336 338 339 337 336 337 337 335 334 336 337 338 339 338 341 342 342 343 343 344 343 341 339 337 336 337 339 341 340 338 338 339 340
340 340 337 343 350 349 348 346 346 340 336 340 339 337 336 335 335 334 333 332 333 334 335 334 337 339 343 340 341 343 341 338 335 335 335 335 338 339 338 336 337 338 339
342 342 339 343 349 348 347 346 346 343 339 340 338 337 336 334 333 333 332 331 330 331 331 332 336 339 339 338 339 343 341 337 334 334 332 335 334 335 337 337 337 338 339
345 345 343 345 346 345 345 345 346 343 340 333 331 335 335 330 326 326 326 325 329 328 329 329 330 335 336 338 340 340 340 337 334 333 332 331 331 329 334 333 338 339 339
346 347 348 348 348 348 346 344 343 341 342 339 332 327 324 321 319 317 320 318 325 326 325 325 323 324 331 333 337 337 336 338 335 334 332 331 331 330 332 332 333 334 336
328 343 347 349 351 349 348 346 345 343 341 341 336 329 323 320 317 314 316 314 311 313 314 315 316 316 317 326 332 332 334 335 335 333 333 332 330 328 328 328 329 332 333
314 317 330 346 348 348 348 347 345 344 343 342 339 336 331 327 321 316 317 316 310 309 309 310 312 312 313 315 322 323 326 330 331 330 329 326 322 327 328 329 330 331 332
311 314 317 323 342 346 348 347 345 343 342 342 341 338 333 328 324 319 318 318 311 308 308 308 308 308 308 311 312 314 317 321 324 324 322 317 316 324 326 326 327 328 329
309 310 313 323 329 342 346 347 345 344 342 342 341 340 337 332 326 320 318 319 317 310 308 309 308 308 306 307 307 307 309 313 316 317 315 312 309 311 318 320 321 322 324
309 309 310 312 317 329 337 341 343 343 342 341 340 340 339 337 331 324 318 319 319 315 310 309 309 308 307 306 305 305 306 306 308 310 309 307 306 307 307 307 312 317 318
308 309 309 309 310 313 316 324 334 337 339 339 339 339 339 338 336 329 321 317 319 318 313 310 309 308 308 307 306 305 305 305 305 306 306 306 305 306 306 305 303 310 313
306 307 308 308 308 309 311 313 314 315 321 327 330 331 332 333 334 331 326 319 318 319 315 312 310 308 308 307 307 306 305 305 305 305 305 305 305 305 305 304 304 305 308
305 305 307 307 307 307 307 307 309 311 312 313 314 316 317 318 321 327 327 322 318 318 316 313 311 309 308 308 307 306 306 305 305 305 305 305 305 305 304 304 305 306 307
304 303 305 307 306 306 306 305 305 305 305 306 308 310 312 312 313 313 314 318 319 317 316 314 311 309 309 307 306 305 305 305 306 306 305 305 305 305 304 304 304 304 303
303 303 303 307 306 305 305 305 305 305 305 305 305 305 306 306 308 310 313 313 311 314 314 313 311 309 308 307 305 302 302 304 305 306 305 305 304 305 304 304 304 304 303
303 303 303 305 305 305 305 305 304 303 303 303 304 305 306 305 305 305 306 310 312 312 310 312 311 309 307 307 305 306 299 301 298 303 304 304 304 304 304 304 304 304 304
303 303 303 303 304 304 304 303 302 302 302 303 304 304 307 306 306 305 306 307 309 310 310 311 310 310 307 306 304 305 305 303 300 301 303 303 303 304 304 304 304 304 304
304 303 303 303 303 303 303 303 302 302 302 303 305 306 307 305 305 306 306 307 307 308 308 310 310 309 308 307 306 306 303 301 301 299 300 300 302 304 304 304 304 304 304
303 302 302 302 303 303 302 303 302 302 302 303 304 304 304 304 303 304 306 307 306 305 307 308 308 309 308 308 307 306 306 303 299 298 296 297 300 303 304 304 304 304 303